, AK

(GMT )
Deadhorse

Weather History for PASC - February, 2013

Change the Weather History Date:

Saturday, February 16, 2013

  Actual Average Record
Temperature  
Mean Temperature -14 °F -  
Max Temperature -11 °F -9 °F 37 °F (2006)
Min Temperature -17 °F -20 °F -53 °F (1987)
Degree Days  
Heating Degree Days 79    
Moisture  
Dew Point -21 °F    
Average Humidity 72    
Maximum Humidity 77    
Minimum Humidity 68    
Precipitation  
Precipitation 0.00 in - - ()
Sea Level Pressure  
Sea Level Pressure 30.28 in    
Wind  
Wind Speed 7 mph (NE)    
Max Wind Speed 13 mph    
Max Gust Speed -    
Visibility 6 miles    
Events Snow    
Averages and records for this station are not official NWS values.
T = Trace of Precipitation, MM = Missing Value Source: NWS Daily Summary

Daily Weather History Graph

Daily Weather History Graph

Search for Another Location

Airport or City:

Trip Planner

Search our weather history database for the weather conditions in past years. The results will help you decide how hot, cold, wet, or windy it might be!

Date:

Astronomy

Feb. 16, 2013 Rise Set
Actual Time 9:21 AM AKST 4:55 PM AKST
Civil Twilight 8:12 AM AKST 6:04 PM AKST
Nautical Twilight 7:00 AM AKST 7:17 PM AKST
Astronomical Twilight 5:49 AM AKST 8:28 PM AKST
Moon 8:08 AM AKST (2/16) 3:29 AM AKST (2/16)
Length of Visible Light 9h 51m
Length of Day
7h 34m
Waxing Crescent, 41% of the Moon is Illuminated
Feb 16
Waxing Crescent
Feb 17
First Quarter
Feb 25
Full
Mar 4
Last Quarter
Mar 11
New

Hourly Weather History & Observations

Time (AKST) Temp. Windchill Dew Point Humidity Pressure Visibility Wind Dir Wind Speed Gust Speed Precip Events Conditions
12:53 AM -15.0 °F -27.4 °F -22.0 °F 71% 30.22 in 10.0 mi NE 4.6 mph - N/A   Overcast
1:53 AM -15.0 °F -27.4 °F -20.9 °F 75% 30.23 in 10.0 mi NE 4.6 mph - N/A   Overcast
2:53 AM -14.1 °F -28.3 °F -20.9 °F 71% 30.23 in 10.0 mi NE 5.8 mph - N/A   Overcast
3:53 AM -14.1 °F -28.3 °F -20.9 °F 71% 30.24 in 10.0 mi NE 5.8 mph - N/A   Overcast
4:53 AM -14.1 °F -26.3 °F -20.9 °F 71% 30.25 in 10.0 mi NE 4.6 mph - N/A   Overcast
5:53 AM -14.1 °F -26.3 °F -20.9 °F 71% 30.25 in 10.0 mi NE 4.6 mph - N/A   Overcast
6:53 AM -14.1 °F -26.3 °F -20.9 °F 71% 30.26 in 10.0 mi NE 4.6 mph - N/A   Overcast
7:53 AM -14.1 °F -28.3 °F -20.9 °F 71% 30.27 in 10.0 mi NE 5.8 mph - N/A   Overcast
8:53 AM -14.1 °F -28.3 °F -20.9 °F 71% 30.26 in 10.0 mi NE 5.8 mph - N/A   Overcast
9:53 AM -13.0 °F -28.6 °F -20.9 °F 68% 30.27 in 10.0 mi NE 6.9 mph - N/A   Overcast
10:53 AM -13.0 °F -28.6 °F -20.0 °F 71% 30.27 in 5.0 mi NE 6.9 mph - N/A Snow Light Snow
11:53 AM -13.0 °F -31.3 °F -20.0 °F 71% 30.29 in 3.0 mi NE 9.2 mph - N/A   Overcast
12:53 PM -13.0 °F -28.6 °F -20.0 °F 71% 30.30 in 3.0 mi ENE 6.9 mph - N/A Snow Light Snow
1:53 PM -11.9 °F -31.0 °F -18.9 °F 71% 30.30 in 3.0 mi NE 10.4 mph - N/A Snow Light Snow
2:53 PM -13.0 °F -33.4 °F -20.0 °F 71% 30.30 in 3.0 mi NE 11.5 mph - N/A Snow Light Snow
3:53 PM -13.0 °F -34.3 °F -20.0 °F 71% 30.30 in 3.0 mi NE 12.7 mph - N/A Snow Light Snow
4:12 PM -14.8 °F -35.6 °F -20.2 °F 77% 30.29 in 3.0 mi NE 11.5 mph - N/A Snow Light Snow
4:53 PM -14.1 °F -34.7 °F -20.0 °F 75% 30.30 in 5.0 mi NE 11.5 mph - N/A   Haze
5:53 PM -14.1 °F -32.6 °F -20.9 °F 71% 30.31 in 3.0 mi NE 9.2 mph - N/A Snow Light Snow
6:53 PM -14.1 °F -33.7 °F -20.9 °F 71% 30.31 in 3.0 mi NE 10.4 mph - N/A Snow Light Snow
7:53 PM -15.0 °F -35.9 °F -22.0 °F 71% 30.31 in 3.0 mi NE 11.5 mph - N/A Snow Light Snow
8:53 PM -16.1 °F -36.2 °F -23.1 °F 71% 30.32 in 3.0 mi NE 10.4 mph - N/A Snow Light Snow
9:53 PM -17.0 °F -37.3 °F -23.1 °F 74% 30.33 in 4.0 mi NE 10.4 mph - N/A Snow Light Snow
10:53 PM -17.0 °F -34.8 °F -23.1 °F 74% 30.34 in 4.0 mi NE 8.1 mph - N/A   Overcast
11:53 PM -16.1 °F -33.7 °F -23.1 °F 71% 30.34 in 3.0 mi NE 8.1 mph - N/A Snow Light Snow